Location: Mentone
(34.5413°N, 85.5351°W)
Time: 19:10:17
(UTC-05:00)

Vanguard 2 Rocket - Visible Passes

Search period start: 30 May 2016 00:00
Search period end: 09 June 2016 00:00
Orbit: 554 x 3329 km, 32.9° (Epoch: 29 May)

Date Brightness Start Highest point End Pass type
(mag) Time Alt. Az. Time Alt. Az. Time Alt. Az.
30 May 8.7 01:23:29 10° W 01:35:25 46° WSW 01:35:25 46° WSW visible
30 May 9.6 19:42:19 10° WSW 20:02:34 73° SSE 20:19:29 10° E visible
30 May 9.1 22:00:49 10° W 22:21:04 85° S 22:33:13 15° E visible
31 May 8.4 00:20:57 10° W 00:37:43 65° SSW 00:39:00 62° S visible
31 May 9.8 02:41:51 10° W 02:44:47 16° W 02:44:47 16° W visible
31 May 9.4 20:58:41 10° W 21:19:26 84° S 21:34:40 10° E visible
31 May 8.8 23:18:24 10° W 23:37:15 76° SSW 23:42:34 44° ESE visible
01 Jun 9.2 01:38:51 10° W 01:48:21 33° WSW 01:48:21 33° WSW visible
01 Jun 9.6 19:57:04 10° WSW 20:17:30 81° SSE 20:34:37 10° E visible
01 Jun 9.1 22:15:56 10° W 22:36:10 82° S 22:46:09 24° ESE visible
02 Jun 8.7 00:36:06 10° W 00:51:56 52° SW 00:51:56 52° SW visible
02 Jun 9.4 21:13:47 10° W 21:34:33 85° S 21:49:44 10° E visible
02 Jun 8.7 23:33:30 10° W 23:52:03 66° SSW 23:55:30 53° SSE visible
03 Jun 9.7 01:54:40 10° W 02:01:17 22° WSW 02:01:17 22° WSW visible
03 Jun 9.6 20:12:04 10° W 20:32:34 85° S 20:49:45 10° E visible
03 Jun 9.1 22:31:04 10° W 22:51:08 76° SSW 22:59:05 35° ESE visible
04 Jun 9.2 00:51:27 10° W 01:04:52 39° SW 01:04:52 39° SW visible
04 Jun 9.4 21:28:55 10° W 21:49:39 82° S 22:02:40 18° ESE visible
04 Jun 8.9 23:48:39 10° WNW 00:06:34 54° SSW 00:08:27 52° S visible
05 Jun 10.2 02:11:35 10° W 02:14:14 13° WSW 02:14:14 13° WSW visible
05 Jun 9.6 20:27:11 10° W 20:47:41 85° S 21:04:53 10° E visible
05 Jun 9.1 22:46:10 10° W 23:05:54 66° SSW 23:12:03 43° SE visible
06 Jun 9.7 01:07:14 10° W 01:17:50 28° WSW 01:17:50 28° WSW visible
06 Jun 9.4 21:44:02 10° W 22:04:35 76° SSW 22:15:39 26° ESE visible
07 Jun 9.2 00:03:59 10° W 00:20:47 42° SW 00:21:26 42° SW visible
07 Jun 9.6 20:42:19 10° W 21:02:46 82° S 21:19:16 12° ESE visible
07 Jun 9.1 23:01:19 10° WNW 23:20:22 55° SSW 23:25:03 45° S visible
08 Jun 10.1 01:24:04 10° W 01:30:50 18° WSW 01:30:50 18° WSW visible
08 Jun 9.4 21:59:08 10° W 22:19:19 66° SSW 22:28:40 33° SE visible
